Weather in White River

South Africa     25°19′34″S   31°01′19″E
temp.,
°C
wind,
m/s
gust,
m/s
humid.,
%
clouds,
%
prec.,
mm/h
press.,
hPa
HPBL,
m
14 june, mon
mon1423:00+12w22450 0.0 102324
02:00+12w22410 0.0 102331
05:00+12w22395 0.0 102238
08:00+15wsw23330 0.0 102374
11:00+25ssw23160 0.0 10211495
14:00+26ese22141 0.0 10172348
17:00+19ne26270 0.0 1019118
20:00+14wnw21370 0.0 102212
15 june, tue
tue1523:00+12w11415 0.0 102312
02:00+11w21460 0.0 102319
05:00+10w21500 0.0 102322
08:00+14wsw12420 0.0 102372
11:00+23ene23215 0.0 10211299
14:00+23ne33185 0.0 10181771
17:00+17ne24317 0.0 101971
20:00+12nw214334 0.0 102218
16 june, wed
wed1623:00+11wnw214812 0.0 102216
02:00+10w21500 0.0 102115
05:00+9w21510 0.0 102117
08:00+13w12400 0.0 102273
11:00+22e21230 0.0 1020943
14:00+24ene32210 0.0 10161542
17:00+18nne27360 0.0 1017197
20:00+13wnw11515 0.0 102012
17 june, thu
thu1723:00+11w22481 0.0 102123
02:00+11w22410 0.0 102027
05:00+11w22400 0.0 102032
08:00+15wsw23330 0.0 102170
11:00+26se12160 0.0 10191115
14:00+26e44150 0.0 10172478
17:00+19ne25280 0.0 1019100
20:00+14w21390 0.0 102316
18 june, fri
fri1823:00+13w11450 0.0 102412
02:00+11w11530 0.0 102413
05:00+10w21560 0.0 102615
08:00+13sw11450 0.0 102998
11:00+18ese335131 0.0 10291184
14:00+17ese3559100 0.0 10291277
17:00+16ese366252 0.1 1030669
20:00+13s118985 0.7 103337